Seaspan Chiwan — VRBH3 — position and weather

sailwx.info

Track history (hours):
 
Tides and Currents Weather Stations Pressure Air Temp Water Temp Dewpoint Dewpoint Depression Visibility Wind Speed Wind Dir Waves Ship Positions

Seaspan Chiwan

Last reported at 2014-Dec-23 04:33 UTC. Time now 2014-Dec-23 05:08 UTC.
Position N 37°45' W 122°44'.

Length 260 m; draft 8.8 m.

Type: Cargo ship. MMSI: 477014500.

Date/timePositionNaut miles runAvg speedWind from/ knotsBaromVisibWave heightAir tempDewpointWater temp
2014-Dec-23 04:33N 37°45' W 122°44'9 8.8
2014-Dec-23 03:33N 37°49' W 122°53'1111.0
2014-Dec-23 02:33N 37°55' W 123°05'1212.3
2014-Dec-23 01:33N 38°03' W 123°17'1212.2
2014-Dec-23 00:33N 38°10' W 123°29'1212.2
2014-Dec-22 23:33N 38°17' W 123°42'1313.2
2014-Dec-22 22:33N 38°26' W 123°54'40716.9
2014-Dec-21 22:24N 45°09' W 125°10'3217.5
2014-Dec-21 20:33N 45°41' W 125°12'1817.9
2014-Dec-21 19:33N 45°59' W 125°12'1717.2
2014-Dec-21 18:33N 46°17' W 125°13'1716.8
2014-Dec-21 17:33N 46°33' W 125°14'1716.9
2014-Dec-21 16:33N 46°50' W 125°14'1716.8
2014-Dec-21 15:33N 47°07' W 125°15'1916.8
2014-Dec-21 14:25N 47°26' W 125°15'1816.9
2014-Dec-21 13:23N 47°44' W 125°17'2216.6
2014-Dec-21 12:03N 48°06' W 125°14'1016.8
2014-Dec-21 11:27N 48°16' W 125°11'1516.6
2014-Dec-21 10:33N 48°29' W 125°03'1414.0
2014-Dec-21 09:33N 48°30' W 124°42'1514.9
2014-Dec-21 08:33N 48°24' W 124°21'1515.4
2014-Dec-21 07:33N 48°19' W 123°60'1616.3
2014-Dec-21 06:33N 48°16' W 123°36'1211.6
2014-Dec-21 05:33N 48°23' W 123°22'1313.1
2014-Dec-21 04:34N 48°34' W 123°13'1615.8
2014-Dec-21 03:33N 48°48' W 123°01'1717.5
2014-Dec-21 02:33N 49°01' W 123°19'9 8.7
2014-Dec-21 01:33N 49°06' W 123°09'10 9.9
2014-Dec-21 00:33N 49°11' W 122°55'0 0.2
2014-Dec-20 23:32N 49°11' W 122°55'0 0.0
2014-Dec-20 22:32N 49°11' W 122°55'0 0.0
2014-Dec-20 21:32N 49°11' W 122°55'0 0.0
2014-Dec-20 20:17N 49°11' W 122°55'0 0.0
2014-Dec-20 19:32N 49°11' W 122°55'0 0.0
2014-Dec-20 18:32N 49°11' W 122°55'0 0.0
2014-Dec-20 17:32N 49°11' W 122°55'0 0.0
2014-Dec-20 16:32N 49°11' W 122°55'0 0.0
2014-Dec-20 15:32N 49°11' W 122°55'0 0.0
2014-Dec-20 14:32N 49°11' W 122°55'0 0.0
2014-Dec-20 13:26N 49°11' W 122°55'0 0.0
2014-Dec-20 12:32N 49°11' W 122°55'0 0.0
2014-Dec-20 11:29N 49°11' W 122°55'0 0.0
2014-Dec-20 10:32N 49°11' W 122°55'0 0.0
2014-Dec-20 09:32N 49°11' W 122°55'0 0.0
2014-Dec-20 08:29N 49°11' W 122°55'0 0.0
2014-Dec-20 07:32N 49°11' W 122°55'0 0.0
2014-Dec-20 06:32N 49°11' W 122°55'0 0.0
2014-Dec-20 05:32N 49°11' W 122°55'0 0.0
2014-Dec-20 04:29N 49°11' W 122°55'0 0.0
2014-Dec-20 03:32N 49°11' W 122°55'0 0.0
2014-Dec-20 02:32N 49°11' W 122°55'0 0.0
2014-Dec-20 01:32N 49°11' W 122°55'0 0.0
2014-Dec-20 00:32N 49°11' W 122°55'0 0.0
2014-Dec-19 23:32N 49°11' W 122°55'2 1.6
2014-Dec-19 22:33N 49°10' W 122°56'9 8.8
2014-Dec-19 21:33N 49°06' W 123°09'8 7.5
2014-Dec-19 20:33N 49°05' W 123°20'1414.4
2014-Dec-19 19:33N 48°54' W 123°05'1312.8
2014-Dec-19 18:33N 48°42' W 123°13'1716.5
2014-Dec-19 17:33N 48°26' W 123°10'1212.5
2014-Dec-19 16:33N 48°19' W 123°25'9 8.9
2014-Dec-19 15:33N 48°10' W 123°23'1212.1
2014-Dec-19 14:33N 48°13' W 123°06'1716.6
2014-Dec-19 13:33N 48°09' W 122°41'1616.1
2014-Dec-19 12:34N 47°55' W 122°29'1716.6
2014-Dec-19 11:34N 47°39' W 122°27'1413.8
2014-Dec-19 10:33N 47°25' W 122°22'9 8.8
2014-Dec-19 09:33N 47°16' W 122°24'2 1.6
2014-Dec-19 08:29N 47°15' W 122°23'0 0.0
2014-Dec-19 07:23N 47°15' W 122°23'0 0.0
2014-Dec-19 06:23N 47°15' W 122°23'0 0.0
2014-Dec-19 05:29N 47°15' W 122°23'0 0.0
2014-Dec-19 04:32N 47°15' W 122°23'0 0.0
2014-Dec-19 03:32N 47°15' W 122°23'0 0.0
2014-Dec-19 02:31N 47°15' W 122°23'0 0.0
2014-Dec-19 01:32N 47°15' W 122°23'0 0.0
2014-Dec-19 00:30N 47°15' W 122°23'0 0.0
2014-Dec-18 23:30N 47°15' W 122°23'0 0.0
2014-Dec-18 22:33N 47°15' W 122°23'0 0.0
2014-Dec-18 21:31N 47°15' W 122°23'0 0.0
2014-Dec-18 19:30N 47°15' W 122°23'0 0.0
2014-Dec-18 18:33N 47°15' W 122°23'0 0.0
2014-Dec-18 17:27N 47°15' W 122°23'0 0.0
2014-Dec-18 16:33N 47°15' W 122°23'0 0.0
2014-Dec-18 15:33N 47°15' W 122°23'0 0.0
2014-Dec-18 14:31N 47°15' W 122°23'3 2.8
2014-Dec-18 13:33N 47°17' W 122°26'10 9.5
2014-Dec-18 12:34N 47°27' W 122°24'1615.5
2014-Dec-18 11:34N 47°42' W 122°28'1514.9
2014-Dec-18 10:34N 47°57' W 122°32'1615.9
2014-Dec-18 09:34N 48°10' W 122°46'1717.0
2014-Dec-18 08:33N 48°12' W 123°11'1212.2
2014-Dec-18 07:34N 48°12' W 123°29'8 7.7
2014-Dec-18 06:33N 48°13' W 123°41'1313.1
2014-Dec-18 05:33N 48°15' W 124°00'1818.3
2014-Dec-18 04:33N 48°23' W 124°25'1717.3
2014-Dec-18 03:33N 48°29' W 124°49'1616.4
2014-Dec-18 02:33N 48°18' W 125°08'1919.0
2014-Dec-18 01:32N 47°59' W 125°14'5618.8
2014-Dec-17 22:33N 47°03' W 125°15'1918.8
2014-Dec-17 21:34N 46°44' W 125°14'1919.0
2014-Dec-17 20:33N 46°25' W 125°13'1918.6
2014-Dec-17 19:33N 46°06' W 125°13'2317.9
2014-Dec-17 18:17N 45°44' W 125°12'1317.8
2014-Dec-17 17:33N 45°31' W 125°11'2018.4
2014-Dec-17 16:27N 45°10' W 125°10'39718.7
2014-Dec-16 19:15N 38°36' W 124°08'1319.0
2014-Dec-16 18:33N 38°27' W 123°55'1919.0
2014-Dec-16 17:33N 38°14' W 123°38'1817.7
2014-Dec-16 16:33N 38°06' W 123°17'1818.4
2014-Dec-16 15:33N 37°54' W 122°59'1717.3
2014-Dec-16 14:34N 37°46' W 122°40'1313.1
2014-Dec-16 13:33N 37°50' W 122°24'4 4.4
2014-Dec-16 12:33N 37°49' W 122°19'0 0.0
2014-Dec-16 11:33N 37°49' W 122°19'0 0.0
2014-Dec-16 10:33N 37°49' W 122°19'0 0.0
2014-Dec-16 09:33N 37°49' W 122°19'0 0.0
2014-Dec-16 08:33N 37°49' W 122°19'0 0.0
2014-Dec-16 07:33N 37°49' W 122°19'0 0.0
2014-Dec-16 06:33N 37°49' W 122°19'0 0.0
2014-Dec-16 05:33N 37°49' W 122°19'0 0.0
2014-Dec-16 04:33N 37°49' W 122°19'0 0.0
2014-Dec-16 03:32N 37°49' W 122°19'0 0.0
2014-Dec-16 02:33N 37°49' W 122°19'0 0.0
2014-Dec-16 01:33N 37°49' W 122°19'0 0.0
2014-Dec-16 00:33N 37°49' W 122°19'0 0.0
2014-Dec-15 23:33N 37°49' W 122°19'0 0.0
2014-Dec-15 22:33N 37°49' W 122°19'0 0.0
2014-Dec-15 21:33N 37°49' W 122°19'0 0.0
2014-Dec-15 20:33N 37°49' W 122°19'0 0.0
2014-Dec-15 19:33N 37°49' W 122°19'0 0.0
2014-Dec-15 18:33N 37°49' W 122°19'0 0.0
2014-Dec-15 17:33N 37°49' W 122°19'0 0.0
2014-Dec-15 16:33N 37°49' W 122°19'0 0.0
2014-Dec-15 15:33N 37°49' W 122°19'0 0.0
2014-Dec-15 14:33N 37°49' W 122°19'0 0.0
2014-Dec-15 13:33N 37°49' W 122°19'5 5.2
2014-Dec-15 12:33N 37°44' W 122°20'0 0.1
2014-Dec-15 11:33N 37°44' W 122°20'0 0.0
2014-Dec-15 10:33N 37°44' W 122°20'0 0.2
2014-Dec-15 09:33N 37°44' W 122°20'0 0.1
2014-Dec-15 08:33N 37°44' W 122°20'0 0.1
2014-Dec-15 07:33N 37°44' W 122°20'0 0.0
2014-Dec-15 06:33N 37°44' W 122°20'0 0.0
2014-Dec-15 05:33N 37°44' W 122°20'0 0.0
2014-Dec-15 04:33N 37°44' W 122°20'0 0.0
2014-Dec-15 03:33N 37°44' W 122°20'0 0.1
2014-Dec-15 02:33N 37°44' W 122°20'0 0.1
2014-Dec-15 01:33N 37°44' W 122°20'0 0.0
2014-Dec-15 00:30N 37°44' W 122°20'0 0.1
2014-Dec-14 23:33N 37°44' W 122°20'0 0.1
2014-Dec-14 22:33N 37°44' W 122°20'0 0.1
2014-Dec-14 21:33N 37°44' W 122°20'0 0.2
2014-Dec-14 20:33N 37°44' W 122°20'0 0.1
2014-Dec-14 19:33N 37°44' W 122°20'0 0.0
2014-Dec-14 18:27N 37°44' W 122°20'0 0.0
2014-Dec-14 17:33N 37°44' W 122°20'0 0.0
2014-Dec-14 16:33N 37°44' W 122°20'0 0.0
2014-Dec-14 15:33N 37°44' W 122°20'0 0.1
2014-Dec-14 14:33N 37°44' W 122°20'0 0.2
2014-Dec-14 13:33N 37°44' W 122°20'0 0.0
2014-Dec-14 12:33N 37°44' W 122°20'0 0.0
2014-Dec-14 11:33N 37°44' W 122°20'0 0.0
2014-Dec-14 10:33N 37°44' W 122°20'0 0.0
2014-Dec-14 09:33N 37°44' W 122°20'0 0.1
2014-Dec-14 08:33N 37°44' W 122°20'0 0.2
2014-Dec-14 07:33N 37°44' W 122°20'0 0.1
2014-Dec-14 06:33N 37°44' W 122°20'0 0.0
2014-Dec-14 05:33N 37°44' W 122°20'0 0.0
2014-Dec-14 04:33N 37°44' W 122°20'0 0.0
2014-Dec-14 03:33N 37°44' W 122°20'0 0.0
2014-Dec-14 02:33N 37°44' W 122°20'0 0.1
2014-Dec-14 01:33N 37°44' W 122°20'0 0.2
2014-Dec-14 00:33N 37°44' W 122°20'0 0.0
2014-Dec-13 23:33N 37°44' W 122°20'0 0.0
2014-Dec-13 22:33N 37°44' W 122°20'0 0.0
2014-Dec-13 21:33N 37°44' W 122°20'0 0.1
2014-Dec-13 20:33N 37°44' W 122°20'0 0.1
2014-Dec-13 19:33N 37°44' W 122°20'0 0.1
2014-Dec-13 18:33N 37°44' W 122°20'0 0.0
2014-Dec-13 17:33N 37°44' W 122°20'0 0.0
2014-Dec-13 16:33N 37°44' W 122°20'0 0.1
2014-Dec-13 15:33N 37°44' W 122°20'0 0.2
2014-Dec-13 14:30N 37°44' W 122°20'0 0.0
2014-Dec-13 13:33N 37°44' W 122°20'0 0.0
2014-Dec-13 12:33N 37°44' W 122°20'0 0.0
2014-Dec-13 11:33N 37°44' W 122°20'0 0.0
2014-Dec-13 10:33N 37°44' W 122°20'0 0.0
2014-Dec-13 09:33N 37°44' W 122°20'0 0.0
2014-Dec-13 08:33N 37°44' W 122°20'0 0.0
2014-Dec-13 07:33N 37°44' W 122°20'0 0.2
2014-Dec-13 06:33N 37°44' W 122°20'0 0.1
2014-Dec-13 05:33N 37°44' W 122°20'  
Track history (hours):
 
Tides and Currents Weather Stations Pressure Air Temp Water Temp Dewpoint Dewpoint Depression Visibility Wind Speed Wind Dir Waves Ship Positions

Seaspan Chiwan

Last reported at 2014-Dec-23 04:33 UTC. Time now 2014-Dec-23 05:08 UTC.
Position N 37°45' W 122°44'.

Length 260 m; draft 8.8 m.

Type: Cargo ship. MMSI: 477014500.

Date/timePositionNaut miles runAvg speedWind from/ knotsBaromVisibWave heightAir tempDewpointWater temp
2014-Dec-23 04:33N 37°45' W 122°44'9 8.8
2014-Dec-23 03:33N 37°49' W 122°53'1111.0
2014-Dec-23 02:33N 37°55' W 123°05'1212.3
2014-Dec-23 01:33N 38°03' W 123°17'1212.2
2014-Dec-23 00:33N 38°10' W 123°29'1212.2
2014-Dec-22 23:33N 38°17' W 123°42'1313.2
2014-Dec-22 22:33N 38°26' W 123°54'40716.9
2014-Dec-21 22:24N 45°09' W 125°10'3217.5
2014-Dec-21 20:33N 45°41' W 125°12'1817.9
2014-Dec-21 19:33N 45°59' W 125°12'1717.2
2014-Dec-21 18:33N 46°17' W 125°13'1716.8
2014-Dec-21 17:33N 46°33' W 125°14'1716.9
2014-Dec-21 16:33N 46°50' W 125°14'1716.8
2014-Dec-21 15:33N 47°07' W 125°15'1916.8
2014-Dec-21 14:25N 47°26' W 125°15'1816.9
2014-Dec-21 13:23N 47°44' W 125°17'2216.6
2014-Dec-21 12:03N 48°06' W 125°14'1016.8
2014-Dec-21 11:27N 48°16' W 125°11'1516.6
2014-Dec-21 10:33N 48°29' W 125°03'1414.0
2014-Dec-21 09:33N 48°30' W 124°42'1514.9
2014-Dec-21 08:33N 48°24' W 124°21'1515.4
2014-Dec-21 07:33N 48°19' W 123°60'1616.3
2014-Dec-21 06:33N 48°16' W 123°36'1211.6
2014-Dec-21 05:33N 48°23' W 123°22'1313.1
2014-Dec-21 04:34N 48°34' W 123°13'1615.8
2014-Dec-21 03:33N 48°48' W 123°01'1717.5
2014-Dec-21 02:33N 49°01' W 123°19'9 8.7
2014-Dec-21 01:33N 49°06' W 123°09'10 9.9
2014-Dec-21 00:33N 49°11' W 122°55'0 0.2
2014-Dec-20 23:32N 49°11' W 122°55'0 0.0
2014-Dec-20 22:32N 49°11' W 122°55'0 0.0
2014-Dec-20 21:32N 49°11' W 122°55'0 0.0
2014-Dec-20 20:17N 49°11' W 122°55'0 0.0
2014-Dec-20 19:32N 49°11' W 122°55'0 0.0
2014-Dec-20 18:32N 49°11' W 122°55'0 0.0
2014-Dec-20 17:32N 49°11' W 122°55'0 0.0
2014-Dec-20 16:32N 49°11' W 122°55'0 0.0
2014-Dec-20 15:32N 49°11' W 122°55'0 0.0
2014-Dec-20 14:32N 49°11' W 122°55'0 0.0
2014-Dec-20 13:26N 49°11' W 122°55'0 0.0
2014-Dec-20 12:32N 49°11' W 122°55'0 0.0
2014-Dec-20 11:29N 49°11' W 122°55'0 0.0
2014-Dec-20 10:32N 49°11' W 122°55'0 0.0
2014-Dec-20 09:32N 49°11' W 122°55'0 0.0
2014-Dec-20 08:29N 49°11' W 122°55'0 0.0
2014-Dec-20 07:32N 49°11' W 122°55'0 0.0
2014-Dec-20 06:32N 49°11' W 122°55'0 0.0
2014-Dec-20 05:32N 49°11' W 122°55'0 0.0
2014-Dec-20 04:29N 49°11' W 122°55'0 0.0
2014-Dec-20 03:32N 49°11' W 122°55'0 0.0
2014-Dec-20 02:32N 49°11' W 122°55'0 0.0
2014-Dec-20 01:32N 49°11' W 122°55'0 0.0
2014-Dec-20 00:32N 49°11' W 122°55'0 0.0
2014-Dec-19 23:32N 49°11' W 122°55'2 1.6
2014-Dec-19 22:33N 49°10' W 122°56'9 8.8
2014-Dec-19 21:33N 49°06' W 123°09'8 7.5
2014-Dec-19 20:33N 49°05' W 123°20'1414.4
2014-Dec-19 19:33N 48°54' W 123°05'1312.8
2014-Dec-19 18:33N 48°42' W 123°13'1716.5
2014-Dec-19 17:33N 48°26' W 123°10'1212.5
2014-Dec-19 16:33N 48°19' W 123°25'9 8.9
2014-Dec-19 15:33N 48°10' W 123°23'1212.1
2014-Dec-19 14:33N 48°13' W 123°06'1716.6
2014-Dec-19 13:33N 48°09' W 122°41'1616.1
2014-Dec-19 12:34N 47°55' W 122°29'1716.6
2014-Dec-19 11:34N 47°39' W 122°27'1413.8
2014-Dec-19 10:33N 47°25' W 122°22'9 8.8
2014-Dec-19 09:33N 47°16' W 122°24'2 1.6
2014-Dec-19 08:29N 47°15' W 122°23'0 0.0
2014-Dec-19 07:23N 47°15' W 122°23'0 0.0
2014-Dec-19 06:23N 47°15' W 122°23'0 0.0
2014-Dec-19 05:29N 47°15' W 122°23'0 0.0
2014-Dec-19 04:32N 47°15' W 122°23'0 0.0
2014-Dec-19 03:32N 47°15' W 122°23'0 0.0
2014-Dec-19 02:31N 47°15' W 122°23'0 0.0
2014-Dec-19 01:32N 47°15' W 122°23'0 0.0
2014-Dec-19 00:30N 47°15' W 122°23'0 0.0
2014-Dec-18 23:30N 47°15' W 122°23'0 0.0
2014-Dec-18 22:33N 47°15' W 122°23'0 0.0
2014-Dec-18 21:31N 47°15' W 122°23'0 0.0
2014-Dec-18 19:30N 47°15' W 122°23'0 0.0
2014-Dec-18 18:33N 47°15' W 122°23'0 0.0
2014-Dec-18 17:27N 47°15' W 122°23'0 0.0
2014-Dec-18 16:33N 47°15' W 122°23'0 0.0
2014-Dec-18 15:33N 47°15' W 122°23'0 0.0
2014-Dec-18 14:31N 47°15' W 122°23'3 2.8
2014-Dec-18 13:33N 47°17' W 122°26'10 9.5
2014-Dec-18 12:34N 47°27' W 122°24'1615.5
2014-Dec-18 11:34N 47°42' W 122°28'1514.9
2014-Dec-18 10:34N 47°57' W 122°32'1615.9
2014-Dec-18 09:34N 48°10' W 122°46'1717.0
2014-Dec-18 08:33N 48°12' W 123°11'1212.2
2014-Dec-18 07:34N 48°12' W 123°29'8 7.7
2014-Dec-18 06:33N 48°13' W 123°41'1313.1
2014-Dec-18 05:33N 48°15' W 124°00'1818.3
2014-Dec-18 04:33N 48°23' W 124°25'1717.3
2014-Dec-18 03:33N 48°29' W 124°49'1616.4
2014-Dec-18 02:33N 48°18' W 125°08'1919.0
2014-Dec-18 01:32N 47°59' W 125°14'5618.8
2014-Dec-17 22:33N 47°03' W 125°15'1918.8
2014-Dec-17 21:34N 46°44' W 125°14'1919.0
2014-Dec-17 20:33N 46°25' W 125°13'1918.6
2014-Dec-17 19:33N 46°06' W 125°13'2317.9
2014-Dec-17 18:17N 45°44' W 125°12'1317.8
2014-Dec-17 17:33N 45°31' W 125°11'2018.4
2014-Dec-17 16:27N 45°10' W 125°10'39718.7
2014-Dec-16 19:15N 38°36' W 124°08'1319.0
2014-Dec-16 18:33N 38°27' W 123°55'1919.0
2014-Dec-16 17:33N 38°14' W 123°38'1817.7
2014-Dec-16 16:33N 38°06' W 123°17'1818.4
2014-Dec-16 15:33N 37°54' W 122°59'1717.3
2014-Dec-16 14:34N 37°46' W 122°40'1313.1
2014-Dec-16 13:33N 37°50' W 122°24'4 4.4
2014-Dec-16 12:33N 37°49' W 122°19'0 0.0
2014-Dec-16 11:33N 37°49' W 122°19'0 0.0
2014-Dec-16 10:33N 37°49' W 122°19'0 0.0
2014-Dec-16 09:33N 37°49' W 122°19'0 0.0
2014-Dec-16 08:33N 37°49' W 122°19'0 0.0
2014-Dec-16 07:33N 37°49' W 122°19'0 0.0
2014-Dec-16 06:33N 37°49' W 122°19'0 0.0
2014-Dec-16 05:33N 37°49' W 122°19'0 0.0
2014-Dec-16 04:33N 37°49' W 122°19'0 0.0
2014-Dec-16 03:32N 37°49' W 122°19'0 0.0
2014-Dec-16 02:33N 37°49' W 122°19'0 0.0
2014-Dec-16 01:33N 37°49' W 122°19'0 0.0
2014-Dec-16 00:33N 37°49' W 122°19'0 0.0
2014-Dec-15 23:33N 37°49' W 122°19'0 0.0
2014-Dec-15 22:33N 37°49' W 122°19'0 0.0
2014-Dec-15 21:33N 37°49' W 122°19'0 0.0
2014-Dec-15 20:33N 37°49' W 122°19'0 0.0
2014-Dec-15 19:33N 37°49' W 122°19'0 0.0
2014-Dec-15 18:33N 37°49' W 122°19'0 0.0
2014-Dec-15 17:33N 37°49' W 122°19'0 0.0
2014-Dec-15 16:33N 37°49' W 122°19'0 0.0
2014-Dec-15 15:33N 37°49' W 122°19'0 0.0
2014-Dec-15 14:33N 37°49' W 122°19'0 0.0
2014-Dec-15 13:33N 37°49' W 122°19'5 5.2
2014-Dec-15 12:33N 37°44' W 122°20'0 0.1
2014-Dec-15 11:33N 37°44' W 122°20'0 0.0
2014-Dec-15 10:33N 37°44' W 122°20'0 0.2
2014-Dec-15 09:33N 37°44' W 122°20'0 0.1
2014-Dec-15 08:33N 37°44' W 122°20'0 0.1
2014-Dec-15 07:33N 37°44' W 122°20'0 0.0
2014-Dec-15 06:33N 37°44' W 122°20'0 0.0
2014-Dec-15 05:33N 37°44' W 122°20'0 0.0
2014-Dec-15 04:33N 37°44' W 122°20'0 0.0
2014-Dec-15 03:33N 37°44' W 122°20'0 0.1
2014-Dec-15 02:33N 37°44' W 122°20'0 0.1
2014-Dec-15 01:33N 37°44' W 122°20'0 0.0
2014-Dec-15 00:30N 37°44' W 122°20'0 0.1
2014-Dec-14 23:33N 37°44' W 122°20'0 0.1
2014-Dec-14 22:33N 37°44' W 122°20'0 0.1
2014-Dec-14 21:33N 37°44' W 122°20'0 0.2
2014-Dec-14 20:33N 37°44' W 122°20'0 0.1
2014-Dec-14 19:33N 37°44' W 122°20'0 0.0
2014-Dec-14 18:27N 37°44' W 122°20'0 0.0
2014-Dec-14 17:33N 37°44' W 122°20'0 0.0
2014-Dec-14 16:33N 37°44' W 122°20'0 0.0
2014-Dec-14 15:33N 37°44' W 122°20'0 0.1
2014-Dec-14 14:33N 37°44' W 122°20'0 0.2
2014-Dec-14 13:33N 37°44' W 122°20'0 0.0
2014-Dec-14 12:33N 37°44' W 122°20'0 0.0
2014-Dec-14 11:33N 37°44' W 122°20'0 0.0
2014-Dec-14 10:33N 37°44' W 122°20'0 0.0
2014-Dec-14 09:33N 37°44' W 122°20'0 0.1
2014-Dec-14 08:33N 37°44' W 122°20'0 0.2
2014-Dec-14 07:33N 37°44' W 122°20'0 0.1
2014-Dec-14 06:33N 37°44' W 122°20'0 0.0
2014-Dec-14 05:33N 37°44' W 122°20'0 0.0
2014-Dec-14 04:33N 37°44' W 122°20'0 0.0
2014-Dec-14 03:33N 37°44' W 122°20'0 0.0
2014-Dec-14 02:33N 37°44' W 122°20'0 0.1
2014-Dec-14 01:33N 37°44' W 122°20'0 0.2
2014-Dec-14 00:33N 37°44' W 122°20'0 0.0
2014-Dec-13 23:33N 37°44' W 122°20'0 0.0
2014-Dec-13 22:33N 37°44' W 122°20'0 0.0
2014-Dec-13 21:33N 37°44' W 122°20'0 0.1
2014-Dec-13 20:33N 37°44' W 122°20'0 0.1
2014-Dec-13 19:33N 37°44' W 122°20'0 0.1
2014-Dec-13 18:33N 37°44' W 122°20'0 0.0
2014-Dec-13 17:33N 37°44' W 122°20'0 0.0
2014-Dec-13 16:33N 37°44' W 122°20'0 0.1
2014-Dec-13 15:33N 37°44' W 122°20'0 0.2
2014-Dec-13 14:30N 37°44' W 122°20'0 0.0
2014-Dec-13 13:33N 37°44' W 122°20'0 0.0
2014-Dec-13 12:33N 37°44' W 122°20'0 0.0
2014-Dec-13 11:33N 37°44' W 122°20'0 0.0
2014-Dec-13 10:33N 37°44' W 122°20'0 0.0
2014-Dec-13 09:33N 37°44' W 122°20'0 0.0
2014-Dec-13 08:33N 37°44' W 122°20'0 0.0
2014-Dec-13 07:33N 37°44' W 122°20'0 0.2
2014-Dec-13 06:33N 37°44' W 122°20'0 0.1
2014-Dec-13 05:33N 37°44' W 122°20'  

Dump ship's entire track history